Regional Weather Roundup
Issued by NWS Upton, NY

Current Version | Previous Version | Graphics & Text | Print | Product List | Glossary Off
Versions: 1 2 3 4 5 6 7 8 9 10 11 12 13 14 15 16 17 18 19 20 21 22 23 24 25 26 27 28 29 30 31 32 33 34 35 36 37 38 39 40 41 42 43 44 45 46 47 48 49 50

000
ASUS41 KOKX 261005
RWROKX

REGIONAL WEATHER ROUNDUP
NATIONAL WEATHER SERVICE NEW YORK NY
500 AM EST WED NOV 26 2014

NOTE: "FAIR" INDICATES FEW OR NO CLOUDS BELOW 12,000 FEET WITH NO
SIGNIFICANT WEATHER AND/OR OBSTRUCTIONS TO VISIBILITY.

NYZ071-072-176-178-NJZ106-104-261100-
NEW YORK CITY METRO AREA


CITY           SKY/WX    TMP DP  RH WIND       PRES   REMARKS
CENTRAL PARK   CLOUDY    48  28  46 VRB7      30.14F
LAGUARDIA APRT CLOUDY    49  29  46 N10       30.11F
KENNEDY INTL   CLOUDY    50  26  39 N8        30.13F
NEWARK/LIBERTY LGT RAIN  48  31  51 N15       30.11F
BRNX BOT. GARD   N/A    N/A N/A N/A W6        30.11F
TETERBORO      LGT RAIN  47  28  47 N10       30.12F
$$

NYZ177-179-078>081-261100-
LONG ISLAND NEW YORK

CITY           SKY/WX    TMP DP  RH WIND       PRES   REMARKS
FARMINGDALE    NOT AVBL
ISLIP          CLOUDY    48  31  51 N12       30.11F
SHIRLEY        CLOUDY    48  32  53 N8        30.13F
WESTHAMPTON    CLOUDY    48  33  56 N7        30.13F
MONTAUK POINT    N/A     50  32  50 N9        30.15F
$$

NYZ052-065-067-261100-
HUDSON VALLEY

CITY           SKY/WX    TMP DP  RH WIND       PRES   REMARKS
WHITE PLAINS   LGT RAIN  43  30  60 N17       30.11F
NEWBURGH       NOT AVBL
MONTGOMERY     CLOUDY    38  30  73 N7        30.18S WCI  33
POUGHKEEPSIE   CLOUDY    41  30  65 N5        30.19F
ALBANY         CLOUDY    38  26  62 W8        30.21R WCI  32
$$

NJZ001-105-106-008-010-013-015-019>022-104-261100-
NEW JERSEY

CITY           SKY/WX    TMP DP  RH WIND       PRES   REMARKS
NEWARK/LIBERTY LGT RAIN  48  31  51 N15       30.11F
TETERBORO      LGT RAIN  47  28  47 N10       30.12F
CALDWELL       LGT RAIN  42  32  67 VRB3      30.14F
MORRISTOWN       N/A     46  32  57 N7        30.15F
SOMERVILLE     CLOUDY    42  32  67 N6        30.12F
SUSSEX         CLOUDY    37  32  82 CALM      30.17R
ANDOVER          N/A     40  32  73 CALM      30.17R
TRENTON        LGT RAIN  46  30  53 N15       30.07F
MILLVILLE      LGT RAIN  44  40  85 E6        30.10R
ATLANTIC CITY  LGT RAIN  43  40  89 E6        30.10R
WRIGHTSTOWN    LGT RAIN  45  36  70 N7        30.06F
TOMS RIVER     CLOUDY    43  39  87 CALM      30.11R
BELMAR         CLOUDY    48  28  46 N8        30.09F
$$

PAZ047>061-062-071-261100-
EASTERN PENNSYLVANIA

CITY           SKY/WX    TMP DP  RH WIND       PRES   REMARKS
PHILADELPHIA   LGT RAIN  48  34  58 NE9       30.08F
ALLENTOWN      CLOUDY    39  32  76 CALM      30.14F
SCRANTON       CLOUDY    38  28  67 NE7       30.15F WCI  33
$$

CTZ002-004>006-009-010-012-RIZ004-006-007-MAZ004-011-015-261100-
SOUTHERN NEW ENGLAND
 IN CT

CITY           SKY/WX    TMP DP  RH WIND       PRES   REMARKS
BRADLEY INTL   CLOUDY    43  28  55 N6        30.19F
HARTFORD       CLOUDY    43  29  57 VRB5      30.18F
DANBURY        CLOUDY    41  27  57 N8        30.17F
WTRBRY/OXFORD  CLOUDY    39  27  60 N12       30.17F WCI  32
BRIDGEPORT     CLOUDY    45  30  55 N15       30.12F
MERIDEN        CLOUDY    43  29  57 N13       30.17F
NEW HAVEN      CLOUDY    47  29  49 N14       30.13F
CHESTER        FAIR      43  30  61 N15       30.13F
GROTON         CLOUDY    46  30  53 N12       30.14F
WILLIMANTIC    CLOUDY    43  30  60 N7        30.17F

 IN RI

CITY           SKY/WX    TMP DP  RH WIND       PRES   REMARKS
PROVIDENCE     CLOUDY    47  28  47 N9        30.17F
BLOCK ISLAND   CLOUDY    48  30  49 N10       30.13F
WESTERLY       CLOUDY    47  30  51 N7        30.14F

 IN MA

CITY           SKY/WX    TMP DP  RH WIND       PRES   REMARKS
BOSTON         NOT AVBL
WORCESTER      CLOUDY    38  28  67 N3        30.16F
WESTFIELD      CLOUDY    39  30  70 NW7       30.19F WCI  34
PROVINCETOWN   CLOUDY    48  36  61 NW9       30.19S
NANTUCKET      CLOUDY    49  40  71 N7        30.16F
$$

ANZ330-335-338-340-345-350-353-355-261100-
COASTAL MARINE OBSERVATIONS


STATION/POSITION TIME  SKY/WX   TEMP    WIND        PRES    VSBY  WAVE
                                AIR SEA DIR/SP/G                  HT/PER
                 (UTC)          (F)     (DEG/KT/KT) (MB)    (MI)  (FT/S)
NY HARB ENTRANCE 1000            51 53  360/ 16/ 17 1019.7          3/ 9
4S FIRE IS       1000               52                N/A           3/ 8
20S FIRE ISLAND  1000            50 54   10/ 17/ 19 1019.0          4/10
23SW MTP         1000                                 N/A           5/ 9
HUDSON CANYON    1000            53 59   20/ 17/ 19 1019.4          5/ 9
EXECUTION ROCKS  1000            49 48  350/ 14/ 17   N/A
WESTERN LI SOUND 1000            48     360/ 14/ 17   N/A           0
CENTRAL LI SOUND 0900            47 50  350/ 17/ 19   N/A           1/ 3
EASTERN LI SOUND 0900            49 53   10/ 12/ 16   N/A
ROBBINS REEF     1000            48     350/ 17/ 21 1018.4
$$


>>>>>>>>>>>>>>>>>>>>>>>>>>>> KEY <<<<<<<<<<<<<<<<<<<<<<<<<<<
>                                                          <
>     SKY/WX - SKY CONDITION/PRESENT WEATHER               <
>     TMP    - TEMPERATURE IN FAHRENHEIT                   <
>     DP     - DEWPOINT IN FAHRENHEIT                      <
>     RH     - RELATIVE HUMIDITY IN PERCENT                <
>     WIND   - DIRECTION AND SPEED IN MPH                  <
>     PRES   - MEAN SEA LEVEL PRESSURE IN INCHES OF HG     <
>     WCI    - WIND CHILL INDEX                            <
>     VSB    - VISIBILITY IN MILES                         <
>     HX     - HEAT INDEX                                  <
>     TC     - TEMPERATURE IN CELSIUS                      <
>     VRB    - VARIABLE WIND DIRECTION                     <
>                                                          <
>>>>>>>>>>>>>>>>>>>>>>>>>>>> KEY <<<<<<<<<<<<<<<<<<<<<<<<<<<




USA.gov is the U.S. government's official web portal to all federal, state and local government web resources and services.